Voltar ao catálogo

GYEONGGISAT-1

AtivoCiênciaSSO
NORAD 66771·PAYLOAD·🇰🇷 South Korea

Lançado Nov 28, 2025 de Vandenberg Space Force Base

Loading…

Próximas Passagens (próximas 24 horas)

TLE

AtualizadoSource: Space-Track

Época: Sep 14, 2026, 11:25 UTC

1 66771U 25276DK  26257.47606996  .00004536  00000-0  20428-3 0  9995
2 66771  97.4158 330.0913 0000333  16.7054 343.4193 15.21566396 44014

Acompanhe GYEONGGISAT-1 em tempo real com AllMySat

Download on the App Store